STARLINK-5871, 55919

Orbit data source: Space-Track

STARLINK-5871, 55919 is a payload satellite owned by SpaceX/Seattle (US) in LEO that was launched on Fri, 17 Mar 2023 UTC via an FALCON 9 launch vehicle from the Air Force Western Test Range (AFWTR). Payload-class satellites include a variety of spacecraft equipped with specific instruments for various scientific and technological missions. These include communications satellites like Starlink; space stations such as the ISS; scientific satellites like the Hubble; Earth observation satellites from companies like Planet Labs, Umbra, and HawkEye 360; GPS; miniature CubeSats for education and research; and military/defense satellites.

Loading next visibility...
Identifier
55919, 2023-037F
Orbit
LEO
Country
Flag of USUS
Related business
Manufacturer
SpaceX/Seattle
Mission
Operational Commercial Communications
Bus & Motor
STARLINK, Unknown motor
Mass
305 kg wet, ~290 kg dry
Launch date (UTC)
2023-03-17 (3 years ago)
Launch vehicle
FALCON 9
Launch site
Air Force Western Test Range (AFWTR)
Object type
Payload
Rocket body
Debris
Shape & HBR
Box + 1 Pan, 10.1 m
Radar Cross Section
11.087 m², Large (>1 m²)

Expand to show TLE details & history
Last TLE update: 7 hours ago

TLE from 7 hours ago
0 STARLINK-5871
1 55919U 23037F   25349.89084095  .00000643  00000-0  61716-4 0  9998
2 55919  69.9989 155.7927 0003060 268.9718  91.1090 14.98332414150934
Epoch: 2025-12-15T21:22Z
TLE epoch observation values (Epoch: 2025-12-15T21:22:48.658Z)
Latitude
-0.00004°
Longitude
110.30703°
Altitude
574.514 km
Speed
7.574 km/s
True Right ascension
10h 23m 10s
True Declination
0° 00' 00"
Sunlit
Object was in daylight at epoch
Visualization orbit readout
Latitude
Unknown
Longitude
Unknown
Altitude
Unknown
Speed
Unknown
Apparent Right ascension
Unknown
Apparent Declination
Unknown
Sunlit
N/A
Visualization observer readout
Local Sidereal Time
03:06:49
Azimuth
Unknown
Elevation
Unknown
Doppler factor
Unknown
Orbital elements
Apogee altitude
572.123 km
Perigee altitude
567.871 km
Semi-major axis
6,948.134 km
Eccentricity
0.00031
Inclination
69.9989°
RAAN
155.7927°
Arg. of periapsis
268.9718°
True anomaly
91.14406°
Mean anomaly
91.109°
Eccentric anomaly
91.12653°
Mean motion
3.74749 °/min
Orbital period
96.06 mins
BSTAR
0.000061716
Loading maneuver chart data...
Computing Atmospheric mass density...
Loading historical data...
Loading historical data...
Loading historical data...
Loading historical data...
Loading historical data...
Loading historical data...
Loading historical data...

Documentation

Showing up to 5 results
|